www.pogodaiklimat.ru

Погода и климат >> Архив погоды >> Австралия >> Camooweal Township


ПОГОДА в Camooweal Township

  • Прогноз погоды в Camooweal Township
  • Монитор погоды в Camooweal Township
  • Климат города

АРХИВ ПОГОДЫ в Camooweal Township

Время (UTC), дата Ветер
(напр.,м/с)
 
Видим.   Явления Облачность Т
(С)
Тd
(С)
f
(%)
Тe
(С)
Тes
(С)
Комфортность P
(гПа)
Po
(гПа)
Тmin
(С)
Tmax
(С)
R
(мм)
R24
(мм)
S
(см)
05 8.08 Ю 5 н/о н/о +24.4 -5.8 13 +22 +22 комфорт 1016.6 989.7
06 8.08 ЮВ 5 н/о н/о +24.4 -6.8 12 +22 +22 комфорт 1016.0 989.1
08 8.08 Ю 5 н/о н/о +23.0 -6.9 13 +21 +21 комфорт 1016.1 989.2
09 8.08 Ю 4 н/о н/о +19.8 -7.5 15 +20 +20 1016.6 989.7
11 8.08 Ю 4 н/о н/о +16.3 -6.7 20 +16 +16 1018.1 991.1
12 8.08 Ю 4 н/о н/о +15.8 -6.5 21 +15 +15 1018.5 991.5
14 8.08 ЮВ 5 н/о н/о +14.9 -6.0 23 +14 +14 1018.9 991.9 +25.3
15 8.08 ЮВ 4 н/о н/о +13.7 -5.9 25 +13 +13 1018.7 991.7
17 8.08 ЮВ 1 н/о н/о +9.8 -6.5 31 +10 +10 1018.5 991.5
18 8.08 штиль 0 н/о н/о +8.5 -5.3 37 +8 +8 1018.4 991.4
20 8.08 Ю 2 н/о н/о +6.4 -6.2 40 +5 +5 1018.7 991.7
21 8.08 ЮВ 3 н/о н/о +8.6 -5.2 37 +7 +7 1019.2 992.2
23 8.08 ЮВ 6 н/о н/о +16.7 -3.9 24 +16 +16 1020.2 993.2
00 9.08 В 6 н/о н/о +20.4 -4.0 19 +20 +20 1020.4 993.4
02 9.08 В 5 н/о н/о +24.2 -5.9 13 +22 +22 комфорт 1019.2 992.2 +6.2
03 9.08 В 4 н/о н/о +26.0 -6.7 11 +23 +23 комфорт 1018.1 991.1
05 9.08 В 4 н/о н/о +27.7 -8.0 9 +24 +24 комфорт 1016.0 989.1
06 9.08 ЮВ 4 н/о н/о +27.5 -9.7 8 +24 +24 комфорт 1015.3 988.4
08 9.08 ЮВ 3 н/о н/о +26.2 -9.1 9 +23 +23 комфорт 1014.8 987.9
09 9.08 ЮВ 3 н/о н/о +22.5 -9.4 11 +20 +20 1015.2 988.3
11 9.08 В 3 н/о н/о +19.2 -8.9 14 +19 +19 1016.1 989.2
12 9.08 ЮВ 3 н/о н/о +16.9 -8.3 17 +17 +17 1016.7 989.8
14 9.08 В 3 н/о н/о +15.1 -7.7 20 +15 +15 1016.8 989.9 +28.6
15 9.08 В 2 н/о н/о +12.4 -6.5 26 +12 +12 1017.0 990.1
17 9.08 В 2 н/о н/о +9.1 -9.4 26 +9 +9 1016.3 989.4
18 9.08 Ю 2 н/о н/о +7.6 -4.2 43 +7 +7 1016.1 989.2
20 9.08 штиль 0 н/о н/о +6.8 -8.7 32 +7 +7 1016.5 989.6
21 9.08 штиль 0 н/о н/о +14.4 -7.8 21 +15 +15 1017.0 990.1
23 9.08 В 4 н/о н/о +19.8 -5.9 17 +20 +20 1017.4 990.4
00 10.08 СВ 4 н/о н/о +24.3 -5.8 13 +22 +22 комфорт 1017.4 990.4
02 10.08 С 4 н/о н/о +28.0 -4.0 12 +25 +25 комфорт 1015.9 989.0 +6.7
03 10.08 С 4 н/о н/о +28.8 -1.3 14 +26 +26 жарко 1014.8 987.9
05 10.08 С 5 н/о н/о +30.1 -2.4 12 +27 +27 жарко 1012.7 985.9
06 10.08 СЗ 4 н/о н/о +31.3 -2.6 11 +28 +28 жарко 1011.7 984.9
08 10.08 С 3 н/о н/о +29.2 -4.3 11 +26 +26 жарко 1011.3 984.5
09 10.08 С 3 н/о н/о +26.0 -4.5 13 +23 +23 комфорт 1011.5 984.7
11 10.08 С 2 н/о н/о +21.7 -2.2 20 +21 +21 комфорт 1013.0 986.2
12 10.08 С 3 н/о н/о +21.0 -2.1 21 +21 +21 комфорт 1013.7 986.8
14 10.08 С 2 н/о н/о +16.7 -1.4 29 +17 +17 1013.7 986.8 +31.4
15 10.08 С 3 н/о н/о +19.1 +0.7 29 +20 +20 1013.9 987.0
17 10.08 СВ 3 н/о н/о +17.0 +1.8 36 +17 +17 1013.3 986.5
18 10.08 СВ 3 н/о н/о +15.3 +2.5 42 +15 +15 1013.2 986.4
20 10.08 СВ 2 н/о н/о +13.7 +7.0 64 +13 +13 1013.6 986.7
21 10.08 С 3 н/о н/о +13.8 +7.8 67 +13 +13 1014.1 987.2
23 10.08 СЗ 2 н/о н/о +20.3 +1.2 28 +21 +21 комфорт 1015.8 988.9
00 11.08 ЮЗ 8 н/о н/о +18.9 +4.5 39 +18 +18 1017.7 990.7
02 11.08 Ю 9 н/о н/о +22.1 +0.6 24 +22 +22 комфорт 1017.4 990.4 +13.5
03 11.08 Ю 9 н/о н/о +23.3 +0.4 22 +22 +22 комфорт 1016.7 989.8
05 11.08 Ю 9 н/о н/о +24.5 +0.1 20 +23 +23 комфорт 1015.1 988.2
06 11.08 Ю 8 н/о н/о +24.6 -0.5 19 +23 +23 комфорт 1014.9 988.0
08 11.08 Ю 8 н/о н/о +22.6 -0.8 21 +22 +22 комфорт 1015.7 988.8
09 11.08 Ю 7 н/о н/о +20.8 -0.5 24 +20 +20 1016.7 989.8
11 11.08 Ю 6 н/о н/о +18.2 -1.1 27 +18 +18 1018.8 991.8
12 11.08 Ю 7 н/о н/о +17.1 -1.5 28 +16 +16 1019.0 992.0
14 11.08 Ю 7 н/о н/о +15.0 -2.4 30 +13 +13 1019.3 992.3 +25.6
15 11.08 Ю 8 н/о н/о +14.7 -3.1 29 +13 +13 1019.5 992.5
17 11.08 Ю 9 н/о н/о +13.6 -1.6 35 +11 +11 1019.6 992.6
18 11.08 Ю 8 н/о н/о +12.8 -1.1 38 +10 +10 1019.8 992.8
20 11.08 Ю 8 н/о н/о +11.7 -1.4 40 +9 +9 1020.7 993.7
21 11.08 Ю 7 н/о н/о +11.3 -2.1 39 +9 +9 1022.1 995.0
23 11.08 ЮВ 10 н/о н/о +14.1 -3.2 30 +12 +12 1023.5 996.4
00 12.08 ЮВ 10 н/о н/о +15.4 -3.0 28 +13 +13 1024.0 996.9
02 12.08 ЮВ 8 н/о н/о +19.2 -2.4 23 +18 +18 1023.6 996.5 +11.1
03 12.08 ЮВ 6 н/о н/о +20.1 -2.9 21 +20 +20 1022.4 995.3
05 12.08 Ю 9 н/о н/о +21.3 -3.2 19 +20 +20 1020.6 993.6
06 12.08 Ю 9 н/о н/о +21.3 -4.0 18 +20 +20 1020.0 993.0
08 12.08 Ю 8 н/о н/о +20.0 -4.3 19 +19 +19 1020.5 993.5
09 12.08 Ю 6 н/о н/о +18.4 -5.6 19 +18 +18 1021.2 994.1
11 12.08 Ю 5 н/о н/о +15.6 -5.4 23 +15 +15 1022.7 995.6
12 12.08 Ю 5 н/о н/о +14.3 -4.9 26 +13 +13 1023.0 995.9
14 12.08 Ю 5 н/о н/о +12.8 -4.8 29 +11 +11 1023.5 996.4 +22.4
15 12.08 Ю 4 н/о н/о +11.3 -5.2 31 +10 +10 1023.3 996.2
17 12.08 Ю 5 н/о н/о +10.3 -5.2 33 +8 +8 1022.2 995.1
18 12.08 Ю 4 н/о н/о +8.9 -5.3 36 +7 +7 1022.2 995.1
20 12.08 Ю 4 н/о н/о +4.6 -5.7 47 +1 +1 1022.6 995.5
21 12.08 Ю 5 н/о н/о +7.9 -3.9 43 +5 +5 1023.3 996.2
23 12.08 Ю 6 н/о н/о +11.6 -4.5 32 +9 +9 1024.8 997.7
00 13.08 ЮВ 9 н/о н/о +15.3 -4.6 25 +13 +13 1025.1 997.9
02 13.08 ЮВ 7 н/о н/о +18.9 -6.7 17 +18 +18 1023.9 996.8 +4.3
03 13.08 ЮВ 6 н/о н/о +21.4 -8.1 13 +20 +20 1022.8 995.7
05 13.08 Ю 6 н/о н/о +23.1 -10.1 10 +21 +21 комфорт 1020.5 993.5
06 13.08 ЮВ 7 н/о н/о +23.1 -10.1 10 +21 +21 комфорт 1020.0 993.0
08 13.08 ЮВ 6 н/о н/о +21.8 -9.9 11 +20 +20 1020.5 993.5
09 13.08 Ю 4 н/о н/о +18.7 -10.2 13 +19 +19 1020.8 993.8
11 13.08 Ю 4 н/о н/о +14.8 -10.0 17 +14 +14 1022.4 995.3
12 13.08 Ю 5 н/о н/о +15.3 -9.6 17 +14 +14 1022.7 995.6
14 13.08 Ю 4 н/о н/о +10.2 -10.0 23 +9 +9 1023.0 995.9 +24.2
15 13.08 Ю 3 н/о н/о +9.1 -10.4 24 +8 +8 1022.9 995.8
17 13.08 ЮЗ 2 н/о н/о +6.6 -9.7 30 +6 +6 1022.5 995.4
18 13.08 ЮЗ 2 н/о н/о +6.0 -9.4 32 +5 +5 1022.1 995.0
20 13.08 Ю 3 н/о н/о +3.4 -10.2 36 +1 +1 1022.1 995.0
21 13.08 ЮЗ 3 н/о н/о +2.8 -10.8 36 -0 -0 1022.3 995.2
23 13.08 Ю 4 н/о н/о +13.6 -6.6 24 +13 +13 1023.1 996.0
00 14.08 ЮВ 5 н/о н/о +16.8 -7.6 18 +16 +16 1023.5 996.4
02 14.08 В 4 н/о н/о +21.6 -8.0 13 +20 +20 1022.3 995.2 +2.8
03 14.08 СВ 4 н/о н/о +24.2 -8.1 11 +22 +22 комфорт 1020.9 993.9
05 14.08 СЗ 2 н/о н/о +26.1 -7.9 10 +23 +23 комфорт 1018.8 991.8
06 14.08 ЮЗ 2 н/о н/о +25.9 -8.0 10 +23 +23 комфорт 1018.2 991.2
08 14.08 ЮЗ 3 н/о н/о +24.9 -7.5 11 +22 +22 комфорт 1017.7 990.7
09 14.08 ЮЗ 3 н/о н/о +21.5 -8.0 13 +20 +20 1017.9 990.9
11 14.08 ЮЗ 2 н/о н/о +16.7 -9.2 16 +17 +17 1019.0 992.0
12 14.08 ЮЗ 2 н/о н/о +14.3 -8.3 20 +14 +14 1019.3 992.3
14 14.08 С 2 н/о н/о +11.8 -10.4 20 +12 +12 1019.4 992.4 +27.1
15 14.08 штиль 0 н/о н/о +9.0 -7.2 31 +9 +9 1018.9 991.9
17 14.08 Ю 2 н/о н/о +8.6 -10.8 24 +8 +8 1018.1 991.1
18 14.08 штиль 0 н/о н/о +7.9 -9.0 29 +8 +8 1017.8 990.8
20 14.08 штиль 0 н/о н/о +5.8 -7.4 38 +6 +6 1018.2 991.2
21 14.08 штиль 0 н/о н/о +4.7 -10.2 33 +5 +5 1018.7 991.7
23 14.08 ЮЗ 2 н/о н/о +12.4 -11.2 18 +12 +12 1020.0 993.0
00 15.08 ЮВ 2 н/о н/о +20.9 -7.6 14 +21 +21 комфорт 1020.2 993.2
02 15.08 Ю 3 н/о н/о +25.6 -8.2 10 +23 +23 комфорт 1019.2 992.2 +3.5
03 15.08 ЮЗ 3 н/о н/о +26.6 -7.5 10 +24 +24 комфорт 1018.2 991.2

 

Местоположение метеостанции Camooweal Township (Квинсленд, Австралия): широта -19.91 долгота 138.11 высота над уровнем моря 231 м.

В архиве по умолчанию представлена погода в Camooweal Township за последнюю неделю. Архивные данные за месяц целиком и за предыдущие месяцы, начиная с января 2011 года, Вы можете получить, выбрав интересующий диапазон дат из раскрывающегося списка и нажав кнопку "Ввод!".


*Определитесь, кто Вы:
робот инопланетянин человек

Внимание! Время в таблицах - всемирное. Для получения местного времени необходимо прибавить поправку, которая в Camooweal Township равна 10 ч.

Смотрите также архив погоды в соседних городах и на ближайших метеорологических станциях:

Погода в Century Mine (Квинсленд, Австралия) (143 км)
Погода в New May Downs (Квинсленд, Австралия) (149 км)
Погода в Mount Isa (Квинсленд, Австралия) (167 км)
Погода в Lake Julius Aws (Квинсленд, Австралия) (171 км)
Погода в Cloncurry Composite (Квинсленд, Австралия) (263 км)
Погода в Phosphate Hill Airport (Квинсленд, Австралия) (282 км)
Погода в Burketown Airport (Квинсленд, Австралия) (283 км)
Погода в Trepell Airport (Квинсленд, Австралия) (358 км)
Погода в Mornington Island (Квинсленд, Австралия) (378 км)
Погода в Julia Creek Airport (Квинсленд, Австралия) (387 км)

Пояснения к столбцам:

Ветер - указаны скорость ветра в м/с - средняя за 10 мин, порывы в срок и между сроками (в фигурных скобках) и направление, откуда дует ветер: С - северный, СВ - северо-восточный, В - восточный, ЮВ - юго-восточный, Ю - южный, ЮЗ - юго-западный, З - западный, СЗ - северо-западный.
Видимость - горизонтальная дальность видимости в метрах или километрах. При видимости от 1 до 10 км при отсутствии осадков обычно наблюдается дымка, при ухудшении видимости до 1 км и менее - туман. В сухую погоду видимость может ухудшаться дымом, пылью или мглою.
Явления - указаны атмосферные явления, наблюдавшиеся в срок или в последний час перед сроком; фигурными скобками обозначены явления, наблюдавшиеся между сроками (за 1-3 часа до срока); квадратными скобками обозначены град или гололедные отложения с указанием их диаметра в мм.
Облачность - указаны через наклонную черту общая и нижняя облачность в баллах и высота нижней границы облаков в метрах; квадратными скобками обозначены формы облаков: Ci - перистые, Cs - перисто-слоистые, Cc - перисто-кучевые, Ac - высококучевые, As - высокослоистые, Sc - слоисто-кучевые, Ns - слоисто-дождевые, Cu - кучевые, Cb - кучево-дождевые. Подробнее классификацию облаков см. в Атласе облаков (PDF).
T - Температура воздуха - температура, измеренная на высоте 2 м над землей.
Td - Температура точки росы - температура, при понижении до которой содержащийся в воздухе водяной пар достигнет насыщения.
f - Относительная влажность воздуха - влажноcть воздуха, измеренная на высоте 2 м над землей.
Te - Эффективная температура - температура, которую ощущает одетый по сезону человек в тени. Характеристика душности погоды. При расчете учитывается влияние влажности воздуха и скорости ветра на теплоощущения человека.
Tes - Эффективная температура на солнце - температура, которую ощущает человек, с поправкой на солнечный нагрев. Характеристика знойности погоды. Зависит от высоты солнца над горизонтом, облачности и скорости ветра. Ночью, в пасмурную погоду, а также при ветре 12 м/с и более поправка равна нулю.
P - Атмосферное давление - приведенное к уровню моря атмосферное давление.
Po - Атмосферное давление - измеренное на уровне метеостанции атмосферное давление.
Tmin - Минимальная температура - минимум температуры воздуха на высоте 2 м над землей.
Tmax - Максимальная температура - максимум температуры воздуха на высоте 2 м над землей.
R - Количество осадков - Количество выпавших осадков за период времени, мм. При наведении курсора мыши на число - период времени, за который выпало указанное количество осадков.
R24 - Количество осадков - Количество выпавших осадков за 24 часа, мм.
S - Снежный покров - Высота снежного покрова, см. При наведении курсора мыши на число - состояние снежного покрова и степень покрытия местности в баллах.